Temperature
13 13 13 13 13 13 13 13 13 12 12 12 12 12 12 12 12 12 12 12 12 12 12 12 11 11 11 11 11 11 11 11 11 11 11 11 11 11
13 13 13 13 13 13 13 13 13 13 12 12 12 12 12 12 11 12 12 12 12 12 11 11 11 11 11 11 11 11 11 11 11 11 11 11 11 11
13 13 13 13 13 13 13 13 13 12 12 12 12 11 11 11 11 11 11 12 11 11 11 11 11 11 11 11 11 11 11 11 11 10 10 10 10 10
13 13 13 13 13 13 13 13 13 12 12 12 12 11 11 11 11 11 11 11 11 11 11 11 11 11 11 11 11 11 10 10 10 10 10 10 10 10
13 13 13 13 12 12 12 12 12 12 12 12 12 12 11 11 11 11 11 11 11 11 10 10 10 11 10 10 10 10 10 10 10 10 10 10 10 10
12 12 12 12 12 12 12 12 12 12 12 12 12 11 11 11 11 11 11 11 11 10 10 10 10 10 10 10 10 10 10 10 10 10 10 10 10 10
12 12 12 12 12 12 12 12 12 12 12 11 11 11 11 11 11 11 11 10 10 10 10 10 10 10 10 10 10 10 10 10 10 10 10 10 10 9
12 12 12 12 12 12 11 12 12 12 11 11 11 11 11 11 11 10 10 10 10 10 10 10 10 10 10 10 10 10 10 10 10 10 10 10 9 9
11 11 11 11 11 11 11 11 11 11 11 11 11 11 11 11 11 11 10 10 10 10 10 10 10 10 10 10 10 10 10 10 10 10 10 10 9 9
11 11 11 11 11 11 11 11 11 11 10 10 11 11 10 10 10 10 10 10 10 10 10 10 10 10 10 10 10 10 10 9 9 9 9 9 9 9
10 10 10 10 10 10 10 10 10 10 10 10 10 10 10 10 10 10 10 10 10 10 10 9 10 10 10 10 10 10 10 9 9 9 9 9 9 9
10 10 10 10 10 10 10 10 10 10 10 10 10 10 10 10 10 9 9 9 9 9 10 9 9 9 9 10 10 10 10 9 9 9 9 9 9 9
9 9 9 9 9 9 9 9 9 9 9 9 9 9 9 9 9 9 9 9 9 9 9 9 9 9 9 9 9 10 9 9 9 9 9 9 8 8
9 9 9 9 9 9 9 9 9 9 9 9 9 9 9 9 9 9 9 9 9 9 9 9 9 9 9 9 9 9 9 9 9 9 9 8 8 8
9 9 8 8 8 8 8 8 8 8 8 8 8 8 9 9 9 9 9 8 8 8 8 8 8 8 8 8 9 9 9 9 9 9 8 8 8 8
8 8 8 8 8 8 8 8 8 8 8 8 8 8 8 8 8 8 8 8 8 8 8 8 8 8 8 8 8 8 8 8 8 8 8 8 8 8
8 8 8 8 8 8 8 8 8 8 8 8 8 8 8 8 8 8 8 8 8 8 8 8 8 8 8 8 8 8 8 8 8 8 8 8 8 8
7 7 7 7 7 7 7 7 7 7 7 7 7 7 7 7 7 7 7 7 7 7 7 7 7 7 7 7 8 8 8 8 8 8 7 7 8 8
7 7 7 7 7 7 7 7 7 7 7 7 7 7 7 7 7 7 7 7 7 7 7 7 7 7 7 7 7 8 7 7 7 7 7 7 7 8
6 6 6 6 6 6 6 6 6 6 6 7 7 7 7 7 6 6 6 6 6 6 6 6 6 6 6 7 7 7 7 7 7 7 7 7 7 7
6 6 6 6 6 6 6 6 6 6 6 6 6 6 6 6 6 6 6 6 6 6 6 6 6 6 6 6 6 7 7 7 7 7 7 6 6 6
5 5 5 5 5 5 6 6 6 6 6 6 6 6 6 5 5 5 5 6 6 6 6 6 6 6 6 5 6 6 6 7 6 6 6 6 6 6
5 5 5 5 5 5 5 5 5 5 5 5 5 5 5 5 5 5 5 5 5 5 5 5 5 5 5 5 5 5 6 6 6 6 6 6 6 6
Wind_Speed
2 2 2 1 1 2 3 4 4 3 2 2 1 1 3 5 6 6 6 6 6 5 5 5 5 5 5 5 5 6 6 6 6 6 6 5 5 5
2 2 2 1 1 1 3 3 3 4 3 3 2 2 3 4 5 6 6 5 5 4 4 4 4 4 5 5 5 5 5 5 5 5 5 5 5 5
2 3 3 2 2 1 2 2 3 3 3 2 1 2 3 3 4 5 5 5 4 4 4 4 3 3 4 4 4 3 3 3 4 3 3 4 4 5
2 3 3 2 2 2 2 2 3 3 4 4 2 2 2 4 4 3 3 4 5 4 4 4 4 4 3 3 3 3 3 3 3 2 2 3 3 4
3 3 3 3 3 2 3 3 3 3 3 4 3 2 1 3 2 2 2 1 3 4 5 5 5 4 4 3 3 2 2 2 2 2 2 2 2 2
2 3 3 4 4 4 4 4 3 3 3 4 3 2 2 2 3 2 1 1 2 3 4 5 5 5 4 4 4 3 3 3 2 2 2 2 1 1
2 2 3 3 4 4 3 4 4 4 3 3 3 3 2 3 4 3 3 1 2 2 1 2 3 4 5 6 5 5 5 4 4 4 4 3 3 2
2 2 2 3 3 4 5 6 7 6 5 4 3 4 5 5 4 4 3 2 2 2 2 2 3 3 5 7 8 7 7 7 6 6 5 5 5 4
3 2 2 2 3 3 4 4 5 6 8 7 6 6 6 7 7 6 5 4 4 3 2 3 2 3 6 8 10 10 9 9 8 8 7 7 7 6
3 3 3 2 2 3 3 3 2 3 5 5 6 7 6 7 9 8 7 4 1 1 3 3 3 3 4 7 10 11 11 11 10 10 9 9 8 8
3 3 3 3 3 3 4 3 3 2 3 5 5 6 7 8 8 5 4 3 2 3 3 3 3 2 2 3 8 11 12 12 12 11 10 10 10 9
2 3 4 4 4 4 4 5 4 4 2 2 2 3 4 6 9 8 8 6 3 3 4 4 2 1 2 2 3 7 9 11 13 13 12 11 10 8
3 3 3 5 5 5 4 4 6 4 3 3 2 2 1 3 5 7 7 6 6 4 4 4 3 2 2 2 2 3 5 6 8 10 12 12 11 9
4 4 4 5 6 5 4 4 5 3 2 2 2 2 3 3 4 5 8 8 7 6 7 7 4 4 3 2 3 2 3 5 6 6 8 9 11 12
4 5 5 6 6 5 5 5 4 3 3 2 3 4 3 3 3 3 3 4 4 4 6 7 5 4 4 4 3 2 2 3 5 4 5 6 6 6
3 3 4 4 4 4 3 4 4 4 4 4 4 4 2 1 2 2 3 3 2 3 3 7 8 6 5 5 4 4 4 3 3 5 4 5 7 9
2 1 1 2 2 2 2 3 3 3 4 3 4 3 3 3 3 2 2 3 3 4 3 2 4 5 5 5 4 5 5 4 4 4 3 4 5 8
3 2 3 3 4 4 4 4 4 4 4 4 4 4 4 4 4 3 3 4 5 5 4 3 1 1 1 3 6 6 5 5 4 4 4 4 6 6
3 3 4 4 4 4 4 4 4 5 4 4 5 5 5 4 4 4 4 5 5 5 4 3 3 4 5 6 5 7 6 5 4 4 5 5 6 6
3 4 5 5 4 4 4 4 4 4 4 4 5 4 5 4 4 5 5 6 6 6 5 4 5 6 8 7 5 4 8 6 5 5 5 5 5 5
4 4 5 4 4 5 5 4 5 5 5 5 5 5 5 5 5 5 5 7 6 6 7 8 7 7 3 1 3 4 3 8 8 5 4 3 3 3
4 5 5 5 5 5 5 5 5 5 5 5 5 5 5 5 6 6 6 6 6 7 7 5 3 3 3 5 7 7 5 3 5 7 7 7 4 5
5 5 5 5 5 5 5 5 6 6 6 6 6 6 6 6 6 6 6 6 6 6 6 5 3 3 5 6 6 5 6 4 3 3 5 8 11 11
Wind_Direction
192 186 182 185 170 180 164 159 157 171 210 221 208 200 152 149 152 143 132 131 123 113 102 96 96 93 91 90 85 82 83 79 78 73 70 69 68 64
192 181 185 184 165 163 173 175 163 164 188 210 205 185 157 152 158 151 148 148 141 136 130 119 109 109 111 105 96 93 91 91 85 78 71 66 62 56
204 188 195 175 161 167 157 158 157 149 163 199 183 163 148 147 143 153 163 161 164 166 163 158 148 135 127 123 114 110 107 103 97 83 74 67 67 61
205 194 206 186 182 184 173 171 171 166 159 168 179 161 163 167 157 156 162 175 182 189 188 185 179 171 153 142 137 128 119 112 107 96 89 79 78 72
198 196 206 179 197 195 186 179 178 171 157 160 173 166 145 155 142 158 156 169 195 202 204 204 200 192 186 177 168 162 151 138 128 124 120 102 88 77
199 199 202 192 199 196 194 189 174 161 158 159 159 162 159 155 143 156 183 237 233 211 205 203 204 202 199 199 199 197 191 182 177 176 176 162 138 139
208 212 215 207 202 195 194 186 173 169 163 171 170 157 166 165 185 182 192 205 256 223 207 216 209 215 219 219 216 216 212 208 205 204 204 206 208 211
210 233 238 225 222 218 205 185 174 173 178 179 188 190 199 195 181 177 167 163 240 235 185 240 203 223 233 225 225 225 225 222 221 220 220 221 221 225
211 223 247 249 229 221 223 207 196 191 183 184 193 206 200 197 182 184 189 192 214 206 173 231 218 235 240 235 231 229 229 230 230 229 229 229 229 229
215 211 215 238 229 192 179 180 200 207 204 197 203 214 210 197 191 193 193 187 198 192 167 208 219 235 246 238 236 233 234 235 235 234 233 234 235 236
232 222 210 220 235 183 165 180 202 244 235 220 223 229 223 204 186 162 156 159 211 226 191 196 220 235 257 247 242 238 236 236 237 237 236 236 237 241
244 238 231 220 213 188 180 183 202 227 221 230 245 248 224 204 190 185 183 183 189 221 205 188 197 171 256 267 246 237 235 239 240 239 239 238 237 234
223 235 238 230 219 208 202 197 213 210 199 199 211 226 223 202 195 197 195 192 194 220 200 176 187 183 203 263 279 240 228 234 235 238 241 238 234 226
222 227 228 225 224 216 214 223 221 204 183 190 208 222 227 224 216 206 210 214 216 218 197 179 186 189 191 222 254 265 249 239 227 233 241 241 237 234
226 227 226 223 218 215 224 223 214 196 184 196 219 232 234 228 210 204 209 215 227 234 208 200 193 191 192 211 220 218 239 250 227 230 235 230 231 229
238 228 225 228 223 225 230 230 217 202 199 214 225 228 223 212 210 208 215 208 226 261 238 220 208 196 212 223 214 221 212 219 228 225 228 240 242 233
199 176 179 192 209 224 226 226 213 205 214 218 217 219 219 222 227 211 207 208 219 236 251 254 231 224 219 209 221 227 221 230 232 216 213 238 244 240
186 199 211 214 219 222 224 226 220 218 218 216 217 219 224 225 230 221 211 213 225 234 234 232 215 289 302 264 223 223 226 231 228 210 205 225 251 249
210 220 222 222 225 226 226 225 228 228 218 216 220 223 226 228 226 226 221 223 230 232 233 220 211 220 238 258 258 221 220 227 213 213 216 219 241 250
229 229 233 232 228 227 230 231 232 230 225 227 228 229 227 227 229 232 229 229 235 237 234 227 221 224 230 241 250 252 224 215 213 224 231 235 252 268
244 238 237 235 234 232 232 232 231 230 229 227 228 229 228 227 234 236 238 238 236 237 236 237 235 233 238 235 259 262 252 226 222 221 218 222 249 261
255 250 243 240 238 234 232 231 231 232 232 231 231 229 227 226 233 236 237 238 235 238 243 245 231 218 213 230 247 253 262 268 247 243 234 224 210 223
257 257 254 247 242 238 234 233 234 236 233 233 233 230 227 229 232 232 235 237 239 240 242 238 223 223 227 228 244 254 256 259 252 254 262 253 254 258
Height
1534 1535 1535 1536 1536 1537 1538 1538 1539 1539 1540 1540 1541 1541 1542 1542 1543 1544 1544 1543 1543 1543 1543 1542 1541 1541 1540 1539 1538 1538 1537 1536 1535 1534 1533 1532 1531 1530
1533 1533 1533 1534 1534 1535 1536 1536 1537 1537 1537 1538 1539 1540 1541 1542 1542 1543 1543 1543 1543 1543 1542 1542 1541 1541 1540 1539 1539 1538 1537 1536 1535 1534 1533 1532 1531 1529
1531 1531 1531 1532 1532 1533 1534 1534 1535 1536 1536 1537 1538 1539 1539 1540 1541 1541 1542 1542 1542 1542 1542 1541 1541 1540 1540 1539 1538 1538 1537 1536 1535 1534 1533 1533 1531 1529
1528 1529 1529 1530 1530 1531 1532 1532 1533 1534 1535 1535 1536 1537 1537 1538 1539 1540 1540 1541 1541 1541 1541 1541 1540 1540 1539 1539 1538 1537 1537 1536 1535 1534 1534 1533 1531 1530
1526 1526 1527 1527 1528 1529 1529 1530 1531 1532 1533 1533 1534 1534 1535 1536 1537 1538 1539 1539 1539 1539 1539 1539 1539 1539 1538 1538 1537 1537 1536 1535 1535 1534 1533 1532 1531 1531
1523 1523 1524 1525 1525 1526 1526 1527 1528 1529 1530 1531 1531 1532 1533 1534 1535 1535 1536 1537 1537 1538 1537 1537 1538 1537 1537 1537 1536 1536 1535 1535 1534 1533 1533 1532 1531 1530
1520 1520 1521 1522 1522 1523 1523 1524 1525 1526 1527 1527 1528 1529 1530 1531 1532 1533 1534 1534 1535 1535 1535 1536 1536 1536 1536 1535 1535 1535 1534 1534 1533 1533 1532 1531 1531 1530
1516 1517 1518 1519 1519 1520 1520 1521 1522 1523 1523 1524 1525 1526 1527 1528 1529 1530 1531 1531 1532 1533 1533 1533 1533 1533 1533 1534 1533 1533 1533 1532 1532 1531 1531 1530 1529 1529
1513 1513 1514 1515 1516 1516 1517 1518 1518 1519 1521 1522 1522 1522 1524 1525 1526 1527 1528 1528 1529 1530 1530 1530 1531 1531 1531 1531 1531 1531 1530 1530 1530 1529 1529 1528 1528 1527
1509 1509 1510 1511 1512 1512 1513 1514 1515 1516 1517 1518 1519 1520 1521 1522 1523 1524 1525 1526 1527 1527 1527 1527 1527 1527 1528 1528 1528 1528 1528 1528 1527 1527 1527 1526 1526 1525
1505 1505 1506 1507 1508 1508 1509 1510 1511 1512 1514 1514 1515 1516 1517 1518 1519 1520 1521 1521 1521 1523 1524 1524 1524 1524 1524 1524 1525 1525 1525 1525 1524 1524 1524 1524 1523 1523
1501 1501 1502 1503 1503 1504 1505 1506 1506 1508 1509 1510 1511 1512 1513 1514 1514 1516 1517 1517 1518 1518 1519 1520 1520 1521 1521 1521 1521 1521 1521 1521 1521 1521 1521 1521 1520 1520
1496 1497 1498 1499 1499 1500 1501 1502 1503 1504 1505 1506 1507 1507 1508 1509 1510 1511 1512 1513 1514 1514 1516 1517 1517 1517 1518 1517 1517 1518 1518 1518 1518 1518 1517 1517 1517 1517
1492 1493 1494 1495 1495 1496 1497 1498 1499 1500 1500 1501 1502 1502 1503 1504 1505 1506 1507 1508 1510 1511 1512 1513 1513 1513 1513 1513 1513 1513 1514 1514 1514 1514 1514 1514 1514 1514
1488 1489 1490 1490 1491 1491 1492 1493 1494 1495 1496 1496 1497 1497 1499 1500 1501 1502 1502 1504 1505 1506 1507 1507 1508 1508 1509 1509 1509 1509 1509 1509 1510 1510 1510 1510 1510 1509
1484 1484 1485 1486 1486 1487 1488 1489 1490 1491 1491 1492 1492 1494 1495 1495 1496 1496 1497 1498 1499 1499 1501 1502 1503 1503 1503 1504 1504 1504 1504 1504 1505 1505 1505 1505 1505 1505
1479 1479 1480 1481 1481 1482 1483 1484 1485 1486 1487 1487 1488 1489 1490 1490 1491 1492 1492 1493 1493 1493 1495 1496 1497 1498 1498 1499 1498 1498 1499 1499 1500 1500 1500 1500 1500 1500
1474 1474 1474 1475 1476 1477 1478 1479 1480 1481 1482 1483 1483 1484 1484 1485 1486 1487 1488 1488 1488 1488 1489 1490 1491 1492 1492 1492 1494 1493 1494 1494 1494 1495 1494 1494 1494 1495
1469 1469 1469 1470 1471 1472 1473 1474 1475 1476 1477 1478 1478 1479 1479 1480 1481 1481 1482 1482 1482 1483 1484 1485 1486 1486 1486 1485 1486 1488 1488 1488 1489 1489 1489 1489 1488 1489
1464 1464 1464 1465 1466 1467 1468 1469 1470 1470 1471 1472 1473 1473 1474 1474 1475 1475 1476 1477 1477 1478 1478 1479 1480 1481 1481 1481 1481 1482 1483 1483 1483 1483 1483 1483 1483 1483
1459 1459 1460 1461 1461 1462 1463 1464 1464 1465 1466 1466 1467 1468 1468 1469 1469 1470 1470 1471 1472 1472 1472 1473 1474 1476 1477 1477 1476 1475 1477 1478 1478 1477 1477 1477 1476 1476
1454 1454 1454 1455 1456 1456 1457 1458 1459 1459 1459 1460 1461 1461 1462 1463 1463 1463 1464 1465 1465 1466 1466 1467 1469 1470 1470 1469 1469 1469 1470 1471 1472 1472 1472 1472 1471 1469
1449 1449 1449 1449 1450 1451 1451 1452 1452 1453 1453 1454 1455 1455 1456 1456 1457 1457 1458 1459 1459 1459 1460 1460 1461 1462 1462 1463 1463 1463 1464 1464 1465 1464 1465 1466 1466 1465